Regional Weather Roundup
Issued by NWS

Home | Current Version | Previous Version | Graphics & Text | Print | Product List | Glossary On
Versions: 1 2 3 4 5 6 7 8 9 10 11 12 13 14 15 16 17 18 19 20 21 22 23 24 25 26 27 28 29 30 31 32 33 34 35 36 37 38 39 40 41 42 43 44 45 46 47 48 49 50
000
ASUS43 KOAX 192210
RWRNE

WEATHER ROUNDUP FOR NEBRASKA
NATIONAL WEATHER SERVICE OMAHA NE
500 PM CDT FRI SEP 19 2014

NOTES: SATELLITE DATA IS BEING USED TO AUGMENT CLOUD COVER ABOVE
       12000 FEET.
       "FAIR" INDICATES FEW OR NO CLOUDS BELOW 12,000 FEET WITH NO
       SIGNIFICANT WEATHER AND/OR OBSTRUCTIONS TO VISIBILITY.

  * THESE STATIONS DO NOT REPORT WEATHER SUCH AS RAIN...SNOW OR FOG.

NEZ001>004-019>022-054>056-192300-
NEBRASKA PANHANDLE

CITY           SKY/WX    TMP DP  RH WIND       PRES   REMARKS
SCOTTSBLUFF    MOSUNNY   89  48  24 NW7       29.87F
ALLIANCE       SUNNY     89  47  23 MISG      29.86S
CHADRON        MOSUNNY   88  49  25 W14       29.83S
KIMBALL        SUNNY     85  42  21 NW9       29.91S
SIDNEY         SUNNY     92  44  19 NE7G17    29.89F
$$

NEZ057>060-069>072-079>082-192300-
SOUTHWEST NEBRASKA

CITY           SKY/WX    TMP DP  RH WIND       PRES   REMARKS
NORTH PLATTE   SUNNY     92  55  28 SW10      29.78S HX  90
IMPERIAL       SUNNY     92  50  23 S15       29.82F
LEXINGTON      SUNNY     92  57  30 SW15      29.80S HX  90
MCCOOK         SUNNY     92  57  30 S20G28    29.81S HX  90
OGALLALA       SUNNY     93  50  23 N10       29.82S HX  90
$$

NEZ005>010-023>029-035>040-094-192300-
NORTH CENTRAL NEBRASKA

CITY           SKY/WX    TMP DP  RH WIND       PRES   REMARKS
VALENTINE      SUNNY     89  53  29 N9        29.79S
AINSWORTH      SUNNY     86  56  36 N7        29.78S
BROKEN BOW     SUNNY     94  55  26 SW17G25   29.78F HX  92
O`NEILL        SUNNY     88  65  46 N6        29.75S
ORD            SUNNY     88  64  44 S17G24    29.75F
THEDFORD       SUNNY     89  58  35 N9        29.80S
$$

NEZ041-046>049-061>064-073>077-083>087-192300-
SOUTH CENTRAL NEBRASKA

CITY           SKY/WX    TMP DP  RH WIND       PRES   REMARKS
GRAND ISLAND   SUNNY     89  61  38 SW23G30   29.81R
AURORA         SUNNY     87  58  37 S18       29.80R
HASTINGS       SUNNY     87  58  37 S17G29    29.82F
HEBRON         SUNNY     88  60  38 S16G26    29.83F
HOLDREGE       SUNNY     88  57  34 S22G29    29.81F
KEARNEY *      SUNNY     88  64  45 S17       29.82S
YORK           SUNNY     86  64  48 SW16G24   29.80F
$$

NEZ011>018-030>034-042>045-192300-
NORTHEAST NEBRASKA

CITY           SKY/WX    TMP DP  RH WIND       PRES   REMARKS
NORFOLK        SUNNY     89  63  41 S22G30    29.74S HX  90
ALBION         SUNNY     88  61  40 SW17G25   29.77S
BLAIR          SUNNY     89  65  44 S21       29.78F HX  91
COLUMBUS *     SUNNY     88  63  42 SW18G24   29.78F
FREMONT        SUNNY     89  61  39 S14G26    29.77F
TEKAMAH        SUNNY     90  65  43 S20G30    29.75F HX  92
WAYNE          SUNNY     90  66  44 SW17G24   29.74S HX  92
$$

NEZ050>053-065>068-078-088>093-192300-
SOUTHEAST NEBRASKA

CITY           SKY/WX    TMP DP  RH WIND       PRES   REMARKS
LINCOLN        SUNNY     89  63  41 SW21G29   29.80F HX  90
OMAHA EPPLEY   MOSUNNY   85  68  56 S20       29.79F
BEATRICE       SUNNY     89  65  46 S20G26    29.84S HX  90
FALLS CITY     SUNNY     82  69  64 S16       29.87F
NEBRASKA CITY    N/A     84  62  48 S17G26    29.85F
PLATTSMOUTH    SUNNY     85  66  53 SE10G20   29.83F
$$

NEZ044-045-051>053-067-192300-
OMAHA AREA

CITY           SKY/WX    TMP DP  RH WIND       PRES   REMARKS
OMAHA EPPLEY   MOSUNNY   85  68  56 S20       29.79F
BLAIR          SUNNY     89  65  44 S21       29.78F HX  91
FREMONT        SUNNY     89  61  39 S14G26    29.77F
MILLARD        SUNNY     89  66  46 S14G23    29.79F HX  91
OFFUTT AFB     SUNNY     84  73  68 SE15      29.80F HX  91
PLATTSMOUTH    SUNNY     85  66  53 SE10G20   29.83F
WAHOO          FAIR      90  58  33 S13G26    29.78F
$$



USA.gov is the U.S. government's official web portal to all federal, state and local government web resources and services.